Вернуться в каталог

KUIPER-00099

АктивенСвязьLEO
NORAD 65138·PAYLOAD·🇺🇸 United States

Запущен Aug 11, 2025 с Cape Canaveral Space Force Station

Loading…

Ближайшие Пролёты (ближайшие 24 часа)

TLE

СвежийSource: CelesTrak SupGP

Эпоха: Sep 14, 2026, 19:10 UTC

1 65138C 25171G   26257.79887732  .00007378  00000+0  96564-3 0  2576
2 65138  51.9028  36.8684 0000540 120.4007 233.0808 14.79930993    17

Отслеживайте KUIPER-00099 в реальном времени с AllMySat

Download on the App Store